owner,sensor,date,latitude,longitude,vertical_datum,sea_water_practical_salinity,qcFlag 
SCCF RECON,ioos:station:SCCF:12:1,2010-11-01T00:00:00Z,26.4966,-82.1479,2.17,32.38,1111122 
SCCF RECON,ioos:station:SCCF:12:1,2010-11-01T01:00:00Z,26.4966,-82.1479,2.24,32.38,1111122 
SCCF RECON,ioos:station:SCCF:12:1,2010-11-01T02:00:00Z,26.4966,-82.1479,2.272,32.34,1111122 
SCCF RECON,ioos:station:SCCF:12:1,2010-11-01T03:00:00Z,26.4966,-82.1479,2.263,32.32,1111122 
SCCF RECON,ioos:station:SCCF:12:1,2010-11-01T04:00:00Z,26.4966,-82.1479,2.21,32.35,1111122 
SCCF RECON,ioos:station:SCCF:12:1,2010-11-01T05:00:00Z,26.4966,-82.1479,2.111,32.19,1111122 
SCCF RECON,ioos:station:SCCF:12:1,2010-11-01T06:00:00Z,26.4966,-82.1479,2.034,32.27,1111122 
SCCF RECON,ioos:station:SCCF:12:1,2010-11-01T07:00:00Z,26.4966,-82.1479,1.969,32.26,1111122 
SCCF RECON,ioos:station:SCCF:12:1,2010-11-01T08:00:00Z,26.4966,-82.1479,1.92,32.33,1111122 
SCCF RECON,ioos:station:SCCF:12:1,2010-11-01T09:00:00Z,26.4966,-82.1479,1.96,32.35,1111122 
SCCF RECON,ioos:station:SCCF:12:1,2010-11-01T10:00:00Z,26.4966,-82.1479,2.05,32.41,1111122 
SCCF RECON,ioos:station:SCCF:12:1,2010-11-01T11:00:00Z,26.4966,-82.1479,2.159,32.42,1111122 
SCCF RECON,ioos:station:SCCF:12:1,2010-11-01T12:00:00Z,26.4966,-82.1479,2.25,32.37,1111122 
SCCF RECON,ioos:station:SCCF:12:1,2010-11-01T13:00:00Z,26.4966,-82.1479,2.308,32.35,1111122 
SCCF RECON,ioos:station:SCCF:12:1,2010-11-01T14:00:00Z,26.4966,-82.1479,2.32,32.31,1111122 
SCCF RECON,ioos:station:SCCF:12:1,2010-11-01T15:00:00Z,26.4966,-82.1479,2.27,32.38,1111122 
SCCF RECON,ioos:station:SCCF:12:1,2010-11-01T16:00:00Z,26.4966,-82.1479,2.19,32.37,1111122 
SCCF RECON,ioos:station:SCCF:12:1,2010-11-01T17:00:00Z,26.4966,-82.1479,2.072,32.2,1111122 
SCCF RECON,ioos:station:SCCF:12:1,2010-11-01T18:00:00Z,26.4966,-82.1479,1.951,32.34,1111122 
SCCF RECON,ioos:station:SCCF:12:1,2010-11-01T19:00:00Z,26.4966,-82.1479,1.86,32.31,1111122 
SCCF RECON,ioos:station:SCCF:12:1,2010-11-01T20:00:00Z,26.4966,-82.1479,1.805,32.39,1111122 
SCCF RECON,ioos:station:SCCF:12:1,2010-11-01T21:00:00Z,26.4966,-82.1479,1.812,32.34,1111122 
SCCF RECON,ioos:station:SCCF:12:1,2010-11-01T22:00:00Z,26.4966,-82.1479,1.9,32.38,1111122 
SCCF RECON,ioos:station:SCCF:12:1,2010-11-01T23:00:00Z,26.4966,-82.1479,2.038,32.4,1111122 
SCCF RECON,ioos:station:SCCF:12:1,2010-11-02T00:00:00Z,26.4966,-82.1479,2.16,32.47,1111122 
SCCF RECON,ioos:station:SCCF:12:1,2010-11-02T01:00:00Z,26.4966,-82.1479,2.249,32.47,1111122 
SCCF RECON,ioos:station:SCCF:12:1,2010-11-02T02:00:00Z,26.4966,-82.1479,2.317,32.42,1111122 
SCCF RECON,ioos:station:SCCF:12:1,2010-11-02T03:00:00Z,26.4966,-82.1479,2.318,32.33,1111122 
SCCF RECON,ioos:station:SCCF:12:1,2010-11-02T04:00:00Z,26.4966,-82.1479,2.25,32.32,1111122 
SCCF RECON,ioos:station:SCCF:12:1,2010-11-02T05:00:00Z,26.4966,-82.1479,2.16,32.06,1111122 
SCCF RECON,ioos:station:SCCF:12:1,2010-11-02T06:00:00Z,26.4966,-82.1479,2.048,31.94,1111122 
SCCF RECON,ioos:station:SCCF:12:1,2010-11-02T07:00:00Z,26.4966,-82.1479,1.923,31.91,1111122 
SCCF RECON,ioos:station:SCCF:12:1,2010-11-02T08:00:00Z,26.4966,-82.1479,1.817,31.95,1111122 
SCCF RECON,ioos:station:SCCF:12:1,2010-11-02T09:00:00Z,26.4966,-82.1479,1.751,31.93,1111122 
SCCF RECON,ioos:station:SCCF:12:1,2010-11-02T10:00:00Z,26.4966,-82.1479,1.771,32.01,1111122 
SCCF RECON,ioos:station:SCCF:12:1,2010-11-02T11:00:00Z,26.4966,-82.1479,1.891,32.07,1111122 
SCCF RECON,ioos:station:SCCF:12:1,2010-11-02T12:00:00Z,26.4966,-82.1479,2.029,32.01,1111122 
SCCF RECON,ioos:station:SCCF:12:1,2010-11-02T13:00:00Z,26.4966,-82.1479,2.13,31.82,1111122 
SCCF RECON,ioos:station:SCCF:12:1,2010-11-02T14:00:00Z,26.4966,-82.1479,2.219,31.86,1111122 
SCCF RECON,ioos:station:SCCF:12:1,2010-11-02T15:00:00Z,26.4966,-82.1479,2.259,32.01,1111122 
SCCF RECON,ioos:station:SCCF:12:1,2010-11-02T16:00:00Z,26.4966,-82.1479,2.229,31.9,1111122 
SCCF RECON,ioos:station:SCCF:12:1,2010-11-02T17:00:00Z,26.4966,-82.1479,2.144,31.61,1111122 
SCCF RECON,ioos:station:SCCF:12:1,2010-11-02T18:00:00Z,26.4966,-82.1479,2.034,31.48,1111122 
SCCF RECON,ioos:station:SCCF:12:1,2010-11-02T19:00:00Z,26.4966,-82.1479,1.922,31.43,1111122 
SCCF RECON,ioos:station:SCCF:12:1,2010-11-02T20:00:00Z,26.4966,-82.1479,1.84,31.63,1111122 
SCCF RECON,ioos:station:SCCF:12:1,2010-11-02T21:00:00Z,26.4966,-82.1479,1.789,31.84,1111122 
SCCF RECON,ioos:station:SCCF:12:1,2010-11-02T22:00:00Z,26.4966,-82.1479,1.83,31.8,1111122 
SCCF RECON,ioos:station:SCCF:12:1,2010-11-02T23:00:00Z,26.4966,-82.1479,1.96,31.76,1111122 
SCCF RECON,ioos:station:SCCF:12:1,2010-11-03T00:00:00Z,26.4966,-82.1479,2.11,31.81,1111122 
SCCF RECON,ioos:station:SCCF:12:1,2010-11-03T01:00:00Z,26.4966,-82.1479,2.225,31.8,1111122 
SCCF RECON,ioos:station:SCCF:12:1,2010-11-03T02:00:00Z,26.4966,-82.1479,2.32,31.81,1111122 
SCCF RECON,ioos:station:SCCF:12:1,2010-11-03T03:00:00Z,26.4966,-82.1479,2.386,31.76,1111122 
SCCF RECON,ioos:station:SCCF:12:1,2010-11-03T04:00:00Z,26.4966,-82.1479,2.37,31.75,1111122 
SCCF RECON,ioos:station:SCCF:12:1,2010-11-03T05:00:00Z,26.4966,-82.1479,2.27,31.65,1111122 
SCCF RECON,ioos:station:SCCF:12:1,2010-11-03T06:00:00Z,26.4966,-82.1479,2.12,31.41,1111122 
SCCF RECON,ioos:station:SCCF:12:1,2010-11-03T07:00:00Z,26.4966,-82.1479,1.981,31.4,1111122 
SCCF RECON,ioos:station:SCCF:12:1,2010-11-03T08:00:00Z,26.4966,-82.1479,1.86,31.44,1111122 
SCCF RECON,ioos:station:SCCF:12:1,2010-11-03T09:00:00Z,26.4966,-82.1479,1.76,31.52,1111122 
SCCF RECON,ioos:station:SCCF:12:1,2010-11-03T10:00:00Z,26.4966,-82.1479,1.7,31.53,1111122 
SCCF RECON,ioos:station:SCCF:12:1,2010-11-03T11:00:00Z,26.4966,-82.1479,1.75,31.69,1111122 
SCCF RECON,ioos:station:SCCF:12:1,2010-11-03T12:00:00Z,26.4966,-82.1479,1.9,31.66,1111122 
SCCF RECON,ioos:station:SCCF:12:1,2010-11-03T13:00:00Z,26.4966,-82.1479,2.046,31.61,1111122 
SCCF RECON,ioos:station:SCCF:12:1,2010-11-03T14:00:00Z,26.4966,-82.1479,2.157,31.57,1111122 
SCCF RECON,ioos:station:SCCF:12:1,2010-11-03T15:00:00Z,26.4966,-82.1479,2.244,31.55,1111122 
SCCF RECON,ioos:station:SCCF:12:1,2010-11-03T16:00:00Z,26.4966,-82.1479,2.284,31.57,1111122 
SCCF RECON,ioos:station:SCCF:12:1,2010-11-03T17:00:00Z,26.4966,-82.1479,2.26,31.46,1111122 
SCCF RECON,ioos:station:SCCF:12:1,2010-11-03T18:00:00Z,26.4966,-82.1479,2.16,31.37,1111122 
SCCF RECON,ioos:station:SCCF:12:1,2010-11-03T19:00:00Z,26.4966,-82.1479,2.04,31.26,1111122 
SCCF RECON,ioos:station:SCCF:12:1,2010-11-03T20:00:00Z,26.4966,-82.1479,1.962,31.14,1111122 
SCCF RECON,ioos:station:SCCF:12:1,2010-11-03T21:00:00Z,26.4966,-82.1479,1.9,31.12,1111122 
SCCF RECON,ioos:station:SCCF:12:1,2010-11-03T22:00:00Z,26.4966,-82.1479,1.893,31.16,1111122 
SCCF RECON,ioos:station:SCCF:12:1,2010-11-03T23:00:00Z,26.4966,-82.1479,1.97,31.28,1111122 
SCCF RECON,ioos:station:SCCF:12:1,2010-11-04T00:00:00Z,26.4966,-82.1479,2.1,31.37,1111122 
SCCF RECON,ioos:station:SCCF:12:1,2010-11-04T01:00:00Z,26.4966,-82.1479,2.24,31.44,1111122 
SCCF RECON,ioos:station:SCCF:12:1,2010-11-04T02:00:00Z,26.4966,-82.1479,2.35,31.62,1111122 
SCCF RECON,ioos:station:SCCF:12:1,2010-11-04T03:00:00Z,26.4966,-82.1479,2.397,31.36,1111122 
SCCF RECON,ioos:station:SCCF:12:1,2010-11-04T04:00:00Z,26.4966,-82.1479,2.4,31.3,1111122 
SCCF RECON,ioos:station:SCCF:12:1,2010-11-04T05:00:00Z,26.4966,-82.1479,2.346,31.17,1111122 
SCCF RECON,ioos:station:SCCF:12:1,2010-11-04T06:00:00Z,26.4966,-82.1479,2.23,31.02,1111122 
SCCF RECON,ioos:station:SCCF:12:1,2010-11-04T07:00:00Z,26.4966,-82.1479,2.072,30.9,1111122 
SCCF RECON,ioos:station:SCCF:12:1,2010-11-04T08:00:00Z,26.4966,-82.1479,1.975,30.99,1111122 
SCCF RECON,ioos:station:SCCF:12:1,2010-11-04T09:00:00Z,26.4966,-82.1479,1.803,30.95,1111122 
SCCF RECON,ioos:station:SCCF:12:1,2010-11-04T10:00:00Z,26.4966,-82.1479,1.7,30.93,1111122 
SCCF RECON,ioos:station:SCCF:12:1,2010-11-04T11:00:00Z,26.4966,-82.1479,1.63,30.93,1111122 
SCCF RECON,ioos:station:SCCF:12:1,2010-11-04T12:00:00Z,26.4966,-82.1479,1.72,30.94,1111122 
SCCF RECON,ioos:station:SCCF:12:1,2010-11-04T13:00:00Z,26.4966,-82.1479,1.94,30.92,1111122 
SCCF RECON,ioos:station:SCCF:12:1,2010-11-04T14:00:00Z,26.4966,-82.1479,2.123,30.93,1111122 
SCCF RECON,ioos:station:SCCF:12:1,2010-11-04T15:00:00Z,26.4966,-82.1479,2.238,30.93,1111122 
SCCF RECON,ioos:station:SCCF:12:1,2010-11-04T16:00:00Z,26.4966,-82.1479,2.322,30.93,1111122 
SCCF RECON,ioos:station:SCCF:12:1,2010-11-04T17:00:00Z,26.4966,-82.1479,2.381,31.19,1111122 
SCCF RECON,ioos:station:SCCF:12:1,2010-11-04T18:00:00Z,26.4966,-82.1479,2.36,31.25,1111122 
SCCF RECON,ioos:station:SCCF:12:1,2010-11-04T19:00:00Z,26.4966,-82.1479,2.3,31.22,1111122 
SCCF RECON,ioos:station:SCCF:12:1,2010-11-04T20:00:00Z,26.4966,-82.1479,2.169,31.38,1111122 
SCCF RECON,ioos:station:SCCF:12:1,2010-11-04T21:00:00Z,26.4966,-82.1479,2.07,31.48,1111122 
SCCF RECON,ioos:station:SCCF:12:1,2010-11-04T22:00:00Z,26.4966,-82.1479,2.02,31.49,1111122 
SCCF RECON,ioos:station:SCCF:12:1,2010-11-04T23:00:00Z,26.4966,-82.1479,2.091,31.3,1111122 
SCCF RECON,ioos:station:SCCF:12:1,2010-11-05T00:00:00Z,26.4966,-82.1479,2.169,31.18,1111122 
SCCF RECON,ioos:station:SCCF:12:1,2010-11-05T01:00:00Z,26.4966,-82.1479,2.263,31.04,1111122 
SCCF RECON,ioos:station:SCCF:12:1,2010-11-05T02:00:00Z,26.4966,-82.1479,2.41,30.94,1111122 
SCCF RECON,ioos:station:SCCF:12:1,2010-11-05T03:00:00Z,26.4966,-82.1479,2.505,30.87,1111122 
SCCF RECON,ioos:station:SCCF:12:1,2010-11-05T04:00:00Z,26.4966,-82.1479,2.569,30.84,1111122 
SCCF RECON,ioos:station:SCCF:12:1,2010-11-05T05:00:00Z,26.4966,-82.1479,2.545,30.86,1111122 
SCCF RECON,ioos:station:SCCF:12:1,2010-11-05T06:00:00Z,26.4966,-82.1479,2.476,31.07,1111122 
SCCF RECON,ioos:station:SCCF:12:1,2010-11-05T07:00:00Z,26.4966,-82.1479,2.365,31.09,1111122 
SCCF RECON,ioos:station:SCCF:12:1,2010-11-05T08:00:00Z,26.4966,-82.1479,2.173,30.91,1111122 
SCCF RECON,ioos:station:SCCF:12:1,2010-11-05T09:00:00Z,26.4966,-82.1479,2.046,30.85,1111122 
SCCF RECON,ioos:station:SCCF:12:1,2010-11-05T10:00:00Z,26.4966,-82.1479,1.883,30.93,1111122 
SCCF RECON,ioos:station:SCCF:12:1,2010-11-05T11:00:00Z,26.4966,-82.1479,1.731,30.99,1111122 
SCCF RECON,ioos:station:SCCF:12:1,2010-11-05T12:00:00Z,26.4966,-82.1479,1.629,31.09,1111122 
SCCF RECON,ioos:station:SCCF:12:1,2010-11-05T13:00:00Z,26.4966,-82.1479,1.616,31.21,1111122 
SCCF RECON,ioos:station:SCCF:12:1,2010-11-05T14:00:00Z,26.4966,-82.1479,1.708,31.24,1111122 
SCCF RECON,ioos:station:SCCF:12:1,2010-11-05T15:00:00Z,26.4966,-82.1479,1.857,31.34,1111122 
SCCF RECON,ioos:station:SCCF:12:1,2010-11-05T16:00:00Z,26.4966,-82.1479,1.984,31.65,1111122 
SCCF RECON,ioos:station:SCCF:12:1,2010-11-05T17:00:00Z,26.4966,-82.1479,2.076,31.5,1111122 
SCCF RECON,ioos:station:SCCF:12:1,2010-11-05T18:00:00Z,26.4966,-82.1479,2.111,31.69,1111122 
SCCF RECON,ioos:station:SCCF:12:1,2010-11-05T19:00:00Z,26.4966,-82.1479,2.052,31.74,1111122 
SCCF RECON,ioos:station:SCCF:12:1,2010-11-05T20:00:00Z,26.4966,-82.1479,1.963,31.57,1111122 
SCCF RECON,ioos:station:SCCF:12:1,2010-11-05T21:00:00Z,26.4966,-82.1479,1.905,31.81,1111122 
SCCF RECON,ioos:station:SCCF:12:1,2010-11-05T22:00:00Z,26.4966,-82.1479,1.849,32.11,1111122 
SCCF RECON,ioos:station:SCCF:12:1,2010-11-05T23:00:00Z,26.4966,-82.1479,1.823,32.78,1111122 
SCCF RECON,ioos:station:SCCF:12:1,2010-11-06T00:00:00Z,26.4966,-82.1479,1.862,32.82,1111122 
SCCF RECON,ioos:station:SCCF:12:1,2010-11-06T01:00:00Z,26.4966,-82.1479,1.97,32.99,1111122 
SCCF RECON,ioos:station:SCCF:12:1,2010-11-06T02:00:00Z,26.4966,-82.1479,2.122,32.93,1111122 
SCCF RECON,ioos:station:SCCF:12:1,2010-11-06T03:00:00Z,26.4966,-82.1479,2.275,32.96,1111122 
SCCF RECON,ioos:station:SCCF:12:1,2010-11-06T04:00:00Z,26.4966,-82.1479,2.378,32.96,1111122 
SCCF RECON,ioos:station:SCCF:12:1,2010-11-06T05:00:00Z,26.4966,-82.1479,2.376,32.83,1111122 
SCCF RECON,ioos:station:SCCF:12:1,2010-11-06T06:00:00Z,26.4966,-82.1479,2.296,32.95,1111122 
SCCF RECON,ioos:station:SCCF:12:1,2010-11-06T07:00:00Z,26.4966,-82.1479,2.162,32.93,1111122 
SCCF RECON,ioos:station:SCCF:12:1,2010-11-06T08:00:00Z,26.4966,-82.1479,2.012,32.91,1111122 
SCCF RECON,ioos:station:SCCF:12:1,2010-11-06T09:00:00Z,26.4966,-82.1479,1.888,32.97,1111122 
SCCF RECON,ioos:station:SCCF:12:1,2010-11-06T10:00:00Z,26.4966,-82.1479,1.784,32.99,1111122 
SCCF RECON,ioos:station:SCCF:12:1,2010-11-06T11:00:00Z,26.4966,-82.1479,1.673,32.95,1111122 
SCCF RECON,ioos:station:SCCF:12:1,2010-11-06T12:00:00Z,26.4966,-82.1479,1.566,32.87,1111122 
SCCF RECON,ioos:station:SCCF:12:1,2010-11-06T13:00:00Z,26.4966,-82.1479,1.509,32.79,1111122 
SCCF RECON,ioos:station:SCCF:12:1,2010-11-06T14:00:00Z,26.4966,-82.1479,1.547,32.56,1111122 
SCCF RECON,ioos:station:SCCF:12:1,2010-11-06T15:00:00Z,26.4966,-82.1479,1.717,32.71,1111122 
SCCF RECON,ioos:station:SCCF:12:1,2010-11-06T16:00:00Z,26.4966,-82.1479,1.856,33.26,1111122 
SCCF RECON,ioos:station:SCCF:12:1,2010-11-06T17:00:00Z,26.4966,-82.1479,1.959,33.3,1111122 
SCCF RECON,ioos:station:SCCF:12:1,2010-11-06T18:00:00Z,26.4966,-82.1479,2.043,33.2,1111122 
SCCF RECON,ioos:station:SCCF:12:1,2010-11-06T19:00:00Z,26.4966,-82.1479,2.071,32.77,1111122 
SCCF RECON,ioos:station:SCCF:12:1,2010-11-06T20:00:00Z,26.4966,-82.1479,2.012,32.51,1111122 
SCCF RECON,ioos:station:SCCF:12:1,2010-11-06T21:00:00Z,26.4966,-82.1479,1.93,32.55,1111122 
SCCF RECON,ioos:station:SCCF:12:1,2010-11-06T22:00:00Z,26.4966,-82.1479,1.866,33.0,1111122 
SCCF RECON,ioos:station:SCCF:12:1,2010-11-06T23:00:00Z,26.4966,-82.1479,1.843,33.01,1111122 
SCCF RECON,ioos:station:SCCF:12:1,2010-11-07T00:00:00Z,26.4966,-82.1479,1.868,33.23,1111122 
SCCF RECON,ioos:station:SCCF:12:1,2010-11-07T01:00:00Z,26.4966,-82.1479,1.928,33.2,1111122 
SCCF RECON,ioos:station:SCCF:12:1,2010-11-07T02:00:00Z,26.4966,-82.1479,2.036,33.49,1111122 
SCCF RECON,ioos:station:SCCF:12:1,2010-11-07T03:00:00Z,26.4966,-82.1479,2.171,33.51,1111122 
SCCF RECON,ioos:station:SCCF:12:1,2010-11-07T04:00:00Z,26.4966,-82.1479,2.281,33.42,1111122 
SCCF RECON,ioos:station:SCCF:12:1,2010-11-07T05:00:00Z,26.4966,-82.1479,2.326,33.43,1111122 
SCCF RECON,ioos:station:SCCF:12:1,2010-11-07T06:00:00Z,26.4966,-82.1479,2.284,33.41,1111122 
SCCF RECON,ioos:station:SCCF:12:1,2010-11-07T07:00:00Z,26.4966,-82.1479,2.167,33.38,1111122 
SCCF RECON,ioos:station:SCCF:12:1,2010-11-07T08:00:00Z,26.4966,-82.1479,2.028,33.39,1111122 
SCCF RECON,ioos:station:SCCF:12:1,2010-11-07T09:00:00Z,26.4966,-82.1479,1.897,33.39,1111122 
SCCF RECON,ioos:station:SCCF:12:1,2010-11-07T10:00:00Z,26.4966,-82.1479,1.779,33.43,1111122 
SCCF RECON,ioos:station:SCCF:12:1,2010-11-07T11:00:00Z,26.4966,-82.1479,1.674,33.47,1111122 
SCCF RECON,ioos:station:SCCF:12:1,2010-11-07T12:00:00Z,26.4966,-82.1479,1.577,33.75,1111122 
SCCF RECON,ioos:station:SCCF:12:1,2010-11-07T13:00:00Z,26.4966,-82.1479,1.495,33.78,1111122 
SCCF RECON,ioos:station:SCCF:12:1,2010-11-07T14:00:00Z,26.4966,-82.1479,1.45,33.69,1111122 
SCCF RECON,ioos:station:SCCF:12:1,2010-11-07T15:00:00Z,26.4966,-82.1479,1.515,33.6,1111122 
SCCF RECON,ioos:station:SCCF:12:1,2010-11-07T16:00:00Z,26.4966,-82.1479,1.694,33.5,1111122 
SCCF RECON,ioos:station:SCCF:12:1,2010-11-07T17:00:00Z,26.4966,-82.1479,1.855,33.27,1111122 
SCCF RECON,ioos:station:SCCF:12:1,2010-11-07T18:00:00Z,26.4966,-82.1479,1.948,33.29,1111122 
SCCF RECON,ioos:station:SCCF:12:1,2010-11-07T19:00:00Z,26.4966,-82.1479,2.024,33.51,1111122 
SCCF RECON,ioos:station:SCCF:12:1,2010-11-07T20:00:00Z,26.4966,-82.1479,2.063,33.55,1111122 
SCCF RECON,ioos:station:SCCF:12:1,2010-11-07T21:00:00Z,26.4966,-82.1479,2.041,33.56,1111122 
SCCF RECON,ioos:station:SCCF:12:1,2010-11-07T22:00:00Z,26.4966,-82.1479,1.984,33.53,1111122 
SCCF RECON,ioos:station:SCCF:12:1,2010-11-07T23:00:00Z,26.4966,-82.1479,1.959,33.42,1111122 
SCCF RECON,ioos:station:SCCF:12:1,2010-11-08T00:00:00Z,26.4966,-82.1479,1.964,33.44,1111122 
SCCF RECON,ioos:station:SCCF:12:1,2010-11-08T01:00:00Z,26.4966,-82.1479,1.983,33.4,1111122 
SCCF RECON,ioos:station:SCCF:12:1,2010-11-08T02:00:00Z,26.4966,-82.1479,2.032,33.59,1111122 
SCCF RECON,ioos:station:SCCF:12:1,2010-11-08T03:00:00Z,26.4966,-82.1479,2.118,33.44,1111122 
SCCF RECON,ioos:station:SCCF:12:1,2010-11-08T04:00:00Z,26.4966,-82.1479,2.214,33.52,1111122 
SCCF RECON,ioos:station:SCCF:12:1,2010-11-08T05:00:00Z,26.4966,-82.1479,2.293,33.64,1111122 
SCCF RECON,ioos:station:SCCF:12:1,2010-11-08T06:00:00Z,26.4966,-82.1479,2.308,33.78,1111122 
SCCF RECON,ioos:station:SCCF:12:1,2010-11-08T07:00:00Z,26.4966,-82.1479,2.24,33.84,1111122 
SCCF RECON,ioos:station:SCCF:12:1,2010-11-08T08:00:00Z,26.4966,-82.1479,2.119,33.8,1111122 
SCCF RECON,ioos:station:SCCF:12:1,2010-11-08T09:00:00Z,26.4966,-82.1479,1.995,33.8,1111122 
SCCF RECON,ioos:station:SCCF:12:1,2010-11-08T10:00:00Z,26.4966,-82.1479,1.866,33.73,1111122 
SCCF RECON,ioos:station:SCCF:12:1,2010-11-08T11:00:00Z,26.4966,-82.1479,1.737,33.65,1111122 
SCCF RECON,ioos:station:SCCF:12:1,2010-11-08T12:00:00Z,26.4966,-82.1479,1.633,33.81,1111122 
SCCF RECON,ioos:station:SCCF:12:1,2010-11-08T13:00:00Z,26.4966,-82.1479,1.525,33.67,1111122 
SCCF RECON,ioos:station:SCCF:12:1,2010-11-08T14:00:00Z,26.4966,-82.1479,1.447,33.56,1111122 
SCCF RECON,ioos:station:SCCF:12:1,2010-11-08T15:00:00Z,26.4966,-82.1479,1.439,33.49,1111122 
SCCF RECON,ioos:station:SCCF:12:1,2010-11-08T16:00:00Z,26.4966,-82.1479,1.591,33.31,1111122 
SCCF RECON,ioos:station:SCCF:12:1,2010-11-08T17:00:00Z,26.4966,-82.1479,1.77,33.37,1111122 
SCCF RECON,ioos:station:SCCF:12:1,2010-11-08T18:00:00Z,26.4966,-82.1479,1.9,33.37,1111122 
SCCF RECON,ioos:station:SCCF:12:1,2010-11-08T19:00:00Z,26.4966,-82.1479,2.001,33.58,1111122 
SCCF RECON,ioos:station:SCCF:12:1,2010-11-08T20:00:00Z,26.4966,-82.1479,2.073,33.56,1111122 
SCCF RECON,ioos:station:SCCF:12:1,2010-11-08T21:00:00Z,26.4966,-82.1479,2.092,33.59,1111122 
SCCF RECON,ioos:station:SCCF:12:1,2010-11-08T22:00:00Z,26.4966,-82.1479,2.056,33.52,1111122 
SCCF RECON,ioos:station:SCCF:12:1,2010-11-08T23:00:00Z,26.4966,-82.1479,2.015,33.44,1111122 
SCCF RECON,ioos:station:SCCF:12:1,2010-11-09T00:00:00Z,26.4966,-82.1479,2.007,33.43,1111122 
SCCF RECON,ioos:station:SCCF:12:1,2010-11-09T01:00:00Z,26.4966,-82.1479,2.034,33.46,1111122 
SCCF RECON,ioos:station:SCCF:12:1,2010-11-09T02:00:00Z,26.4966,-82.1479,2.074,33.54,1111122 
SCCF RECON,ioos:station:SCCF:12:1,2010-11-09T03:00:00Z,26.4966,-82.1479,2.15,33.56,1111122 
SCCF RECON,ioos:station:SCCF:12:1,2010-11-09T04:00:00Z,26.4966,-82.1479,2.268,33.48,1111122 
SCCF RECON,ioos:station:SCCF:12:1,2010-11-09T05:00:00Z,26.4966,-82.1479,2.377,33.18,1111122 
SCCF RECON,ioos:station:SCCF:12:1,2010-11-09T06:00:00Z,26.4966,-82.1479,2.439,33.12,1111122 
SCCF RECON,ioos:station:SCCF:12:1,2010-11-09T07:00:00Z,26.4966,-82.1479,2.432,33.1,1111122 
SCCF RECON,ioos:station:SCCF:12:1,2010-11-09T08:00:00Z,26.4966,-82.1479,2.368,33.14,1111122 
SCCF RECON,ioos:station:SCCF:12:1,2010-11-09T09:00:00Z,26.4966,-82.1479,2.253,33.33,1111122 
SCCF RECON,ioos:station:SCCF:12:1,2010-11-09T10:00:00Z,26.4966,-82.1479,2.112,33.48,1111122 
SCCF RECON,ioos:station:SCCF:12:1,2010-11-09T11:00:00Z,26.4966,-82.1479,1.988,33.37,1111122 
SCCF RECON,ioos:station:SCCF:12:1,2010-11-09T12:00:00Z,26.4966,-82.1479,1.87,33.34,1111122 
SCCF RECON,ioos:station:SCCF:12:1,2010-11-09T13:00:00Z,26.4966,-82.1479,1.752,33.33,1111122 
SCCF RECON,ioos:station:SCCF:12:1,2010-11-09T14:00:00Z,26.4966,-82.1479,1.657,33.24,1111122 
SCCF RECON,ioos:station:SCCF:12:1,2010-11-09T15:00:00Z,26.4966,-82.1479,1.599,33.16,1111122 
SCCF RECON,ioos:station:SCCF:12:1,2010-11-09T16:00:00Z,26.4966,-82.1479,1.637,33.15,1111122 
SCCF RECON,ioos:station:SCCF:12:1,2010-11-09T17:00:00Z,26.4966,-82.1479,1.79,33.23,1111122 
SCCF RECON,ioos:station:SCCF:12:1,2010-11-09T18:00:00Z,26.4966,-82.1479,1.916,33.2,1111122 
SCCF RECON,ioos:station:SCCF:12:1,2010-11-09T19:00:00Z,26.4966,-82.1479,2.003,33.17,1111122 
SCCF RECON,ioos:station:SCCF:12:1,2010-11-09T20:00:00Z,26.4966,-82.1479,2.06,33.13,1111122 
SCCF RECON,ioos:station:SCCF:12:1,2010-11-09T21:00:00Z,26.4966,-82.1479,2.097,33.36,1111122 
SCCF RECON,ioos:station:SCCF:12:1,2010-11-09T22:00:00Z,26.4966,-82.1479,2.089,33.4,1111122 
SCCF RECON,ioos:station:SCCF:12:1,2010-11-09T23:00:00Z,26.4966,-82.1479,2.051,33.47,1111122 
SCCF RECON,ioos:station:SCCF:12:1,2010-11-10T00:00:00Z,26.4966,-82.1479,2.03,33.44,1111122 
SCCF RECON,ioos:station:SCCF:12:1,2010-11-10T01:00:00Z,26.4966,-82.1479,2.04,33.38,1111122 
SCCF RECON,ioos:station:SCCF:12:1,2010-11-10T02:00:00Z,26.4966,-82.1479,2.05,33.42,1111122 
SCCF RECON,ioos:station:SCCF:12:1,2010-11-10T03:00:00Z,26.4966,-82.1479,2.09,33.39,1111122 
SCCF RECON,ioos:station:SCCF:12:1,2010-11-10T04:00:00Z,26.4966,-82.1479,2.16,33.33,1111122 
SCCF RECON,ioos:station:SCCF:12:1,2010-11-10T05:00:00Z,26.4966,-82.1479,2.26,33.27,1111122 
SCCF RECON,ioos:station:SCCF:12:1,2010-11-10T06:00:00Z,26.4966,-82.1479,2.35,33.21,1111122 
SCCF RECON,ioos:station:SCCF:12:1,2010-11-10T07:00:00Z,26.4966,-82.1479,2.4,33.21,1111122 
SCCF RECON,ioos:station:SCCF:12:1,2010-11-10T08:00:00Z,26.4966,-82.1479,2.399,33.2,1111122 
SCCF RECON,ioos:station:SCCF:12:1,2010-11-10T09:00:00Z,26.4966,-82.1479,2.34,33.21,1111122 
SCCF RECON,ioos:station:SCCF:12:1,2010-11-10T10:00:00Z,26.4966,-82.1479,2.248,33.27,1111122 
SCCF RECON,ioos:station:SCCF:12:1,2010-11-10T11:00:00Z,26.4966,-82.1479,2.126,33.28,1111122 
SCCF RECON,ioos:station:SCCF:12:1,2010-11-10T12:00:00Z,26.4966,-82.1479,2.01,33.27,1111122 
SCCF RECON,ioos:station:SCCF:12:1,2010-11-10T13:00:00Z,26.4966,-82.1479,1.903,33.27,1111122 
SCCF RECON,ioos:station:SCCF:12:1,2010-11-10T14:00:00Z,26.4966,-82.1479,1.804,33.27,1111122 
SCCF RECON,ioos:station:SCCF:12:1,2010-11-10T15:00:00Z,26.4966,-82.1479,1.73,33.26,1111122 
SCCF RECON,ioos:station:SCCF:12:1,2010-11-10T16:00:00Z,26.4966,-82.1479,1.71,33.25,1111122 
SCCF RECON,ioos:station:SCCF:12:1,2010-11-10T17:00:00Z,26.4966,-82.1479,1.801,33.23,1111122 
SCCF RECON,ioos:station:SCCF:12:1,2010-11-10T18:00:00Z,26.4966,-82.1479,1.945,33.22,1111122 
SCCF RECON,ioos:station:SCCF:12:1,2010-11-10T19:00:00Z,26.4966,-82.1479,2.059,33.2,1111122 
SCCF RECON,ioos:station:SCCF:12:1,2010-11-10T20:00:00Z,26.4966,-82.1479,2.127,33.22,1111122 
SCCF RECON,ioos:station:SCCF:12:1,2010-11-10T21:00:00Z,26.4966,-82.1479,2.181,33.28,1111122 
SCCF RECON,ioos:station:SCCF:12:1,2010-11-10T22:00:00Z,26.4966,-82.1479,2.2,33.31,1111122 
SCCF RECON,ioos:station:SCCF:12:1,2010-11-10T23:00:00Z,26.4966,-82.1479,2.18,33.31,1111122 
SCCF RECON,ioos:station:SCCF:12:1,2010-11-11T00:00:00Z,26.4966,-82.1479,2.157,33.31,1111122 
SCCF RECON,ioos:station:SCCF:12:1,2010-11-11T01:00:00Z,26.4966,-82.1479,2.131,33.3,1111122 
SCCF RECON,ioos:station:SCCF:12:1,2010-11-11T02:00:00Z,26.4966,-82.1479,2.13,33.3,1111122 
SCCF RECON,ioos:station:SCCF:12:1,2010-11-11T03:00:00Z,26.4966,-82.1479,2.15,33.27,1111122 
SCCF RECON,ioos:station:SCCF:12:1,2010-11-11T04:00:00Z,26.4966,-82.1479,2.196,33.27,1111122 
SCCF RECON,ioos:station:SCCF:12:1,2010-11-11T05:00:00Z,26.4966,-82.1479,2.238,33.29,1111122 
SCCF RECON,ioos:station:SCCF:12:1,2010-11-11T06:00:00Z,26.4966,-82.1479,2.3,33.24,1111122 
SCCF RECON,ioos:station:SCCF:12:1,2010-11-11T07:00:00Z,26.4966,-82.1479,2.354,33.23,1111122 
SCCF RECON,ioos:station:SCCF:12:1,2010-11-11T08:00:00Z,26.4966,-82.1479,2.373,33.21,1111122 
SCCF RECON,ioos:station:SCCF:12:1,2010-11-11T09:00:00Z,26.4966,-82.1479,2.34,33.21,1111122 
SCCF RECON,ioos:station:SCCF:12:1,2010-11-11T10:00:00Z,26.4966,-82.1479,2.28,33.22,1111122 
SCCF RECON,ioos:station:SCCF:12:1,2010-11-11T11:00:00Z,26.4966,-82.1479,2.205,33.23,1111122 
SCCF RECON,ioos:station:SCCF:12:1,2010-11-11T12:00:00Z,26.4966,-82.1479,2.115,33.24,1111122 
SCCF RECON,ioos:station:SCCF:12:1,2010-11-11T13:00:00Z,26.4966,-82.1479,2.011,33.24,1111122 
SCCF RECON,ioos:station:SCCF:12:1,2010-11-11T14:00:00Z,26.4966,-82.1479,1.911,33.24,1111122 
SCCF RECON,ioos:station:SCCF:12:1,2010-11-11T15:00:00Z,26.4966,-82.1479,1.82,33.25,1111122 
SCCF RECON,ioos:station:SCCF:12:1,2010-11-11T16:00:00Z,26.4966,-82.1479,1.775,33.26,1111122 
SCCF RECON,ioos:station:SCCF:12:1,2010-11-11T17:00:00Z,26.4966,-82.1479,1.964,33.24,1111122 